Change the Weather History Date:

Thursday, January 16, 2014

  Actual Average Record
Temperature  
Mean Temperature 34 °F -  
Max Temperature 41 °F 40 °F 70 °F (1952)
Min Temperature 27 °F 22 °F 0 °F (1964)
Degree Days  
Heating Degree Days 31    
Moisture  
Dew Point 21 °F    
Average Humidity 59    
Maximum Humidity 88    
Minimum Humidity 35    
Precipitation  
Precipitation 0.00 in - - ()
Sea Level Pressure  
Sea Level Pressure 29.97 in    
Wind  
Wind Speed 5 mph (NW)    
Max Wind Speed 12 mph    
Max Gust Speed 17 mph    
Visibility 10 miles    
Events      
Averages and records for this station are not official NWS values.
T = Trace of Precipitation, MM = Missing Value Source: NWS Daily Summary

Daily Weather History Graph

Daily Weather History Graph

Search for Another Location

Airport or City:

Trip Planner

Search our weather history database for the weather conditions in past years. The results will help you decide how hot, cold, wet, or windy it might be!

Date:

Astronomy

Jan. 16, 2014 Rise Set
Actual Time 7:24 AM EST 5:10 PM EST
Civil Twilight 6:55 AM EST 5:39 PM EST
Nautical Twilight 6:22 AM EST 6:12 PM EST
Astronomical Twilight 5:50 AM EST 6:44 PM EST
Moon 5:59 PM EST (1/16) 7:17 AM EST (1/16)
Length of Visible Light 10h 44m
Length of Day
9h 46m
Full, 100% of the Moon is Illuminated
Jan 16
Full
Jan 24
Last Quarter
Jan 30
New
Feb 6
First Quarter
Feb 14
Full

Hourly Weather History & Observations

Time (EST) Temp. Windchill Dew Point Humidity Pressure Visibility Wind Dir Wind Speed Gust Speed Precip Events Conditions
12:10 AM 40.1 °F 33.2 °F 28.2 °F 63% 29.96 in 10.0 mi NW 11.5 mph 17.3 mph N/A   Overcast
12:30 AM 39.7 °F 34.9 °F 28.2 °F 63% 29.97 in 10.0 mi NNW 6.9 mph - N/A   Overcast
12:50 AM 39.4 °F 34.5 °F 28.2 °F 64% 29.96 in 10.0 mi NNW 6.9 mph - N/A   Overcast
1:10 AM 39.0 °F 34.8 °F 28.2 °F 65% 29.97 in 10.0 mi WNW 5.8 mph - N/A   Overcast
1:30 AM 38.8 °F 33.8 °F 28.6 °F 67% 29.98 in 10.0 mi NNW 6.9 mph - N/A   Overcast
1:50 AM 38.3 °F 35.9 °F 28.2 °F 67% 29.98 in 10.0 mi NNW 3.5 mph - N/A   Overcast
2:10 AM 38.3 °F 33.2 °F 28.0 °F 67% 29.99 in 10.0 mi NW 6.9 mph - N/A   Overcast
2:30 AM 37.4 °F 31.4 °F 28.9 °F 71% 30.00 in 10.0 mi NNW 8.1 mph - N/A   Overcast
2:50 AM 36.1 °F 31.4 °F 30.9 °F 81% 29.98 in 10.0 mi North 5.8 mph - N/A   Overcast
3:10 AM 35.6 °F 30.7 °F 31.1 °F 84% 29.97 in 10.0 mi North 5.8 mph - N/A   Overcast
3:30 AM 35.1 °F 32.2 °F 30.9 °F 85% 29.97 in 10.0 mi NNW 3.5 mph - N/A   Overcast
3:50 AM 35.1 °F - 30.7 °F 84% 29.96 in 10.0 mi Calm Calm - N/A   Overcast
4:10 AM 35.6 °F - 30.7 °F 82% 29.96 in 10.0 mi Calm Calm - N/A   Overcast
4:30 AM 35.6 °F 30.7 °F 29.8 °F 80% 29.96 in 10.0 mi NNW 5.8 mph - N/A   Overcast
4:50 AM 36.0 °F - 28.6 °F 75% 29.97 in 10.0 mi Calm Calm - N/A   Overcast
5:10 AM 35.8 °F - 28.4 °F 75% 29.96 in 10.0 mi Calm Calm - N/A   Overcast
5:30 AM 36.0 °F - 27.3 °F 71% 29.96 in 10.0 mi Calm Calm - N/A   Overcast
5:50 AM 36.1 °F 32.3 °F 26.8 °F 69% 29.96 in 10.0 mi NNW 4.6 mph - N/A   Overcast
6:10 AM 36.0 °F 32.1 °F 26.2 °F 68% 29.96 in 10.0 mi NW 4.6 mph - N/A   Overcast
6:30 AM 36.0 °F 31.1 °F 25.7 °F 66% 29.96 in 10.0 mi NNW 5.8 mph - N/A   Overcast
6:50 AM 36.0 °F 29.6 °F 24.1 °F 62% 29.97 in 10.0 mi NW 8.1 mph - N/A   Overcast
7:10 AM 36.0 °F 28.5 °F 22.5 °F 58% 29.97 in 10.0 mi NNW 10.4 mph - N/A   Overcast
7:30 AM 35.6 °F 29.9 °F 19.6 °F 52% 29.97 in 10.0 mi North 6.9 mph 17.3 mph N/A   Overcast
7:50 AM 35.1 °F 28.6 °F 19.6 °F 53% 30.01 in 10.0 mi NW 8.1 mph - N/A   Overcast
8:10 AM 34.9 °F 28.3 °F 18.9 °F 52% 30.01 in 10.0 mi NW 8.1 mph - N/A   Overcast
8:30 AM 35.1 °F 31.0 °F 18.5 °F 51% 30.02 in 10.0 mi NW 4.6 mph - N/A   Overcast
8:50 AM 35.6 °F 31.7 °F 18.1 °F 49% 30.03 in 10.0 mi NNW 4.6 mph - N/A   Overcast
9:10 AM 35.6 °F 29.9 °F 16.9 °F 47% 30.03 in 10.0 mi NW 6.9 mph - N/A   Mostly Cloudy
9:30 AM 36.9 °F 30.7 °F 16.9 °F 44% 30.03 in 10.0 mi NW 8.1 mph - N/A   Overcast
9:50 AM 37.6 °F 31.0 °F 17.8 °F 45% 30.02 in 10.0 mi NNW 9.2 mph - N/A   Mostly Cloudy
10:10 AM 36.5 °F 30.3 °F 15.1 °F 42% 30.02 in 10.0 mi NNW 8.1 mph - N/A   Scattered Clouds
10:30 AM 36.5 °F 32.7 °F 15.3 °F 42% 30.02 in 10.0 mi NW 4.6 mph - N/A   Scattered Clouds
10:50 AM 36.0 °F 29.6 °F 14.9 °F 42% 30.02 in 10.0 mi NW 8.1 mph - N/A   Mostly Cloudy
11:10 AM 36.0 °F 31.1 °F 14.9 °F 42% 30.01 in 10.0 mi WNW 5.8 mph - N/A   Mostly Cloudy
11:30 AM 36.7 °F 31.2 °F 15.1 °F 41% 30.00 in 10.0 mi NW 6.9 mph - N/A   Scattered Clouds
11:50 AM 37.6 °F 33.1 °F 14.4 °F 39% 29.99 in 10.0 mi NW 5.8 mph - N/A   Scattered Clouds
12:10 PM 38.7 °F 36.3 °F 15.6 °F 39% 29.96 in 10.0 mi NW 3.5 mph - N/A   Scattered Clouds
12:30 PM 39.4 °F 33.2 °F 15.1 °F 37% 29.94 in 10.0 mi WNW 9.2 mph - N/A   Clear
12:50 PM 39.4 °F 33.2 °F 15.1 °F 37% 29.94 in 10.0 mi NW 9.2 mph - N/A   Clear
1:10 PM 39.7 °F 34.9 °F 14.4 °F 36% 29.92 in 10.0 mi NW 6.9 mph - N/A   Clear
1:30 PM 40.3 °F 36.3 °F 14.7 °F 35% 29.91 in 10.0 mi West 5.8 mph - N/A   Clear
1:50 PM 40.6 °F 35.4 °F 14.7 °F 35% 29.91 in 10.0 mi West 8.1 mph - N/A   Clear
2:10 PM 40.8 °F 36.9 °F 14.9 °F 35% 29.90 in 10.0 mi NW 5.8 mph - N/A   Clear
2:30 PM 41.0 °F 35.8 °F 15.1 °F 35% 29.89 in 10.0 mi West 8.1 mph - N/A   Clear
2:50 PM 41.0 °F 35.2 °F 15.1 °F 35% 29.89 in 10.0 mi WNW 9.2 mph 16.1 mph N/A   Clear
3:10 PM 41.2 °F 36.6 °F 15.8 °F 36% 29.89 in 10.0 mi NW 6.9 mph - N/A   Clear
3:30 PM 41.0 °F 36.4 °F 15.4 °F 36% 29.90 in 10.0 mi West 6.9 mph - N/A   Clear
3:50 PM 40.5 °F 37.3 °F 15.1 °F 36% 29.90 in 10.0 mi West 4.6 mph - N/A   Clear
4:10 PM 40.1 °F 36.1 °F 14.9 °F 36% 29.91 in 10.0 mi West 5.8 mph - N/A   Clear
4:30 PM 39.6 °F 37.4 °F 14.5 °F 36% 29.92 in 10.0 mi West 3.5 mph - N/A   Clear
4:50 PM 38.7 °F - 15.8 °F 39% 29.93 in 10.0 mi Calm Calm - N/A   Clear
5:10 PM 38.5 °F 36.1 °F 15.3 °F 39% 29.92 in 10.0 mi WSW 3.5 mph - N/A   Clear
5:30 PM 38.1 °F - 15.8 °F 40% 29.93 in 10.0 mi Calm Calm - N/A   Clear
5:50 PM 34.5 °F - 20.3 °F 56% - 10.0 mi Calm Calm - N/A   Clear
6:10 PM 32.9 °F - 21.9 °F 64% 29.94 in 10.0 mi Calm Calm - N/A   Clear
6:30 PM 32.0 °F - 22.3 °F 67% 29.96 in 10.0 mi Calm Calm - N/A   Clear
6:50 PM 31.3 °F - 23.5 °F 73% 29.96 in 10.0 mi Calm Calm - N/A   Clear
7:10 PM 30.9 °F - 21.9 °F 69% 29.96 in 10.0 mi Calm Calm - N/A   Clear
7:30 PM 30.2 °F - 21.9 °F 71% 29.96 in 10.0 mi Calm Calm - N/A   Clear
7:50 PM 30.0 °F - 22.3 °F 73% 29.97 in 10.0 mi Calm Calm - N/A   Clear
8:10 PM 29.3 °F - 22.8 °F 77% 29.98 in 10.0 mi Calm Calm - N/A   Clear
8:30 PM 29.1 °F - 22.8 °F 77% 29.98 in 10.0 mi Calm Calm - N/A   Clear
8:50 PM 29.1 °F - 21.7 °F 74% 29.98 in 10.0 mi Calm Calm - N/A   Clear
9:10 PM 28.4 °F - 23.2 °F 81% 29.98 in 10.0 mi Calm Calm - N/A   Clear
9:30 PM 28.4 °F - 22.1 °F 77% 29.99 in 10.0 mi Calm Calm - N/A   Clear
9:50 PM 28.2 °F - 23.0 °F 81% 29.98 in 10.0 mi Calm Calm - N/A   Clear
10:10 PM 27.5 °F - 23.0 °F 83% 29.98 in 10.0 mi Calm Calm - N/A   Clear
10:30 PM 27.5 °F - 23.0 °F 83% 29.98 in 10.0 mi Calm Calm - N/A   Clear
10:50 PM 27.5 °F - 23.7 °F 86% 29.97 in 10.0 mi Calm Calm - N/A   Clear
11:10 PM 27.3 °F - 23.9 °F 87% 29.97 in 10.0 mi Calm Calm - N/A   Clear
11:30 PM 27.0 °F - 23.5 °F 87% 29.97 in 10.0 mi Calm Calm - N/A   Clear
11:50 PM 27.0 °F - 23.9 °F 88% 29.96 in 10.0 mi Calm Calm - N/A   Clear